www.pogodaiklimat.ru

Погода и климат >> Архив погоды >> Индонезия >> Бау-Бау


ПОГОДА в Бау-Бау

  • Прогноз погоды в Бау-Бау
  • Монитор погоды в Бау-Бау

АРХИВ ПОГОДЫ в Бау-Бау

Время (UTC), дата Ветер
(напр.,м/с)
 
Видим.   Явления Облачность Т
(С)
Тd
(С)
f
(%)
Тe
(С)
Тes
(С)
Комфортность P
(гПа)
Po
(гПа)
Тmin
(С)
Tmax
(С)
R
(мм)
R24
(мм)
S
(см)
00 13.09 СВ 2 12 км 5/5 600 м
[Sc]
+26.2 +19.5 67 +32 +35 очень
душно
1018.3 1011.9 +20.8
03 13.09 СВ 1 12 км 8/8 500 м
[Cu med, cong]
+30.6 +18.5 48 +35 +40 очень
душно
1017.0 1010.6
06 13.09 В 5 10 км ясно +32.0 +17.7 43 +36 +44 очень
душно
1014.0 1008.2
09 13.09 В 4 10 км 1/1 500 м
[Cu med, cong]
+28.6 +17.7 52 +33 +34 очень
душно
1014.0 1007.6
12 13.09 штиль 0 8000 м 1/1 600 м
[Sc]
+24.0 +19.4 75 +29 +29 душно 1016.5 1010.1 +33.8
15 13.09 СВ 1 8000 м 1/1 600 м
[Sc]
+22.2 +19.4 84 +28 +28 душно 1017.0 1010.6
18 13.09 В 1 8000 м ясно +21.6 +18.8 84 1016.3
21 13.09 В 1 8000 м ясно +20.6 +18.7 89 1017.1
00 14.09 СВ 2 10 км 1/1 600 м
[Sc]
+26.0 +19.9 69 +32 +37 очень
душно
1018.3 1011.9 +20.6
03 14.09 В 6 10 км 4/3 600 м
[Sc As op Ci fib]
+31.4 +18.2 45 +36 +42 очень
душно
1016.9 1010.5
06 14.09 В 5 12 км 4/3 600 м
[Sc Ac trans]
+32.5 +18.9 45 +38 +43 очень
душно
1013.8 1007.4
09 14.09 В 4 12 км 1/1 570 м
[Cu med, cong]
+28.9 +19.3 56 +34 +35 очень
душно
1013.6 1007.2
12 14.09 СВ 2 5000 м 1/1 600 м
[Sc diur, vesp]
+25.6 +20.8 75 +32 +32 очень
душно
1015.4 1008.9 +34.0
15 14.09 В 2 5000 м 1/1 600 м
[Sc]
+24.4 +19.8 76 +30 +30 очень
душно
1016.1 1009.7
18 14.09 СВ 1 5000 м 1/1 600 м
[Sc]
+22.4 +21.5 95 +30 +30 очень
душно
1015.3 1008.9
21 14.09 СВ 2 10 км н/о +20.4 +19.8 96 +25 +25 комфорт 1015.9 1009.5
00 15.09 С 1 10 км 4/4 570 м
[Sc Ci fib]
+27.0 +19.4 63 +33 +37 очень
душно
1017.3 1010.9 +20.4
03 15.09 В 4 10 км 4/4 570 м
[Sc Ci fib]
+31.2 +16.8 42 +35 +44 очень
душно
1015.6 1009.1
06 15.09 ЮЗ 4 10 км 1/1 570 м
[Sc Ci fib]
+31.4 +15.9 39 +34 +43 душно 1012.8 1006.4
09 15.09 В 4 10 км 1/1 570 м
[Sc Ci fib]
+29.2 +19.8 57 +35 +36 очень
душно
1012.9 1006.5
12 15.09 штиль 0 8000 м 3/3 600 м
[Sc Ci fib]
+25.6 +20.9 75 +32 +32 очень
душно
1015.2 1008.7 +33.4
15 15.09 штиль 0 8000 м 1/1 600 м
[Sc]
+24.5 +20.6 79 +30 +30 очень
душно
1015.6 1009.2
18 15.09 СВ 3 8000 м 6/6 600 м
[Sc]
+25.0 +20.5 76 +31 +31 очень
душно
1015.4 1008.9
21 15.09 штиль 0 8000 м 1/1 600 м
[Sc]
+24.0 +20.2 79 +30 +30 очень
душно
1015.0 1008.5
00 16.09 В 5 12 км 1/1 570 м
[Sc Ci fib]
+27.8 +19.6 61 +34 +37 очень
душно
1016.0 1009.6 +23.2
03 16.09 В 6 12 км 3/3 570 м
[Sc Ci fib]
+32.4 +11.9 29 +33 +39 жарко 1014.8 1008.4
06 16.09 СВ 4 10 км 9/9 1500 м
[]
+31.2 +17.1 43 +35 +36 очень
душно
1012.1 1006.3
09 16.09 В 5 10 км 4/3 570 м
[Sc diur, vesp Ac lent]
+28.4 +17.4 51 +32 +33 душно 1012.1 1005.7
12 16.09 СВ 3 7000 м 4/3 570 м
[Sc Ac trans Ci]
+25.6 +19.8 70 +31 +31 очень
душно
1014.2 1007.8 +34.8
15 16.09 В 5 10 км н/о +25.2 +21.5 80 +32 +32 очень
душно
1014.5 1008.7
18 16.09 С 1 10 км н/о +23.7 +21.6 88 +30 +30 очень
душно
1013.9 1008.1
21 16.09 штиль 0 8000 м 4/3 570 м
[Sc Ci fib]
+23.6 +21.2 86 +30 +30 очень
душно
1014.7 1008.3
00 17.09 СВ 1 10 км 8/5 500 м
[Sc Ac As Ci fib]
+26.4 +21.3 74 +34 +36 очень
душно
1016.7 1010.3 +23.0
03 17.09 С 2 10 км 3/3 1000 м
[]
+30.0 +19.8 54 +36 +41 очень
душно
1015.6 1009.1
06 17.09 ЮВ 4 10 км 6/3 570 м
[Sc Ac As Ci fib]
+32.2 +13.5 32 +33 +39 жарко 1013.4 1007.0
09 17.09 В 6 10 км 4/3 570 м
[Sc Ci fib]
+29.6 +18.6 52 +35 +35 очень
душно
1013.7 1007.3
12 17.09 СВ 4 6000 м 1/1 500 м
[Sc diur, vesp Ci fib]
+26.0 +20.6 72 +32 +32 очень
душно
1015.7 1009.2 +33.4
15 17.09 В 3 10 км ясно +24.7 +21.7 83 +32 +32 очень
душно
1016.1 1010.3
18 17.09 В 3 6000 м ясно +23.4 +21.0 86 1015.5
21 17.09 В 3 7000 м 3/0
[Ci]
+23.2 +21.1 88 +31 +31 очень
душно
1016.5 1010.1
00 18.09 СВ 2 10 км 1/1 570 м
[Sc Ci]
+27.8 +20.6 65 +35 +41 очень
душно
1017.9 1011.5 +21.8
03 18.09 В 3 10 км ясно +32.2 +18.1 43 +37 +46 очень
душно
1016.0 1009.6
06 18.09 В 4 10 км 5/4 600 м
[Sc Ac As Ci fib]
+33.0 +16.4 37 +36 +42 очень
душно
1013.8 1007.4
09 18.09 СВ 2 10 км 1/1 600 м
[Sc Ac As]
+29.6 +19.6 55 +36 +37 очень
душно
1014.4 1008.0
12 18.09 С 3 7000 м 3/3 600 м
[Sc Ci fib]
+26.0 +21.5 76 +33 +33 очень
душно
1016.3 1009.8 +33.2
15 18.09 СВ 2 7000 м 3/1 600 м
[Cu med, cong Ci fib]
+24.4 +21.7 85 +31 +31 очень
душно
1016.3 1009.9
18 18.09 В 4 7000 м 3/1 600 м
[Sc Ci fib]
+23.4 +21.3 88 +31 +31 очень
душно
1015.2 1008.8
21 18.09 СВ 3 7000 м 3/1 600 м
[Sc Ci fib]
+23.2 +21.1 88 +31 +31 очень
душно
1015.4 1009.0
00 19.09 СЗ 3 12 км 1/1 600 м
[Sc]
+27.4 +20.2 65 +34 +39 очень
душно
1017.2 1010.8 +22.9
03 19.09 СВ 2 12 км 5/5 540 м
[Cu med, cong]
+31.6 +18.8 47 +37 +48 очень
душно
1015.5 1009.0
06 19.09 С 3 10 км 6/5 570 м
[Cu med, cong Ac trans]
+31.6 +20.3 51 +38 +44 очень
душно
1013.2 1006.8
09 19.09 СВ 2 10 км 4/3 570 м
[Cu med, cong Ci]
+29.2 +20.5 59 +36 +37 очень
душно
1013.3 1006.9
12 19.09 СЗ 2 8000 м 3/3 600 м
[Sc]
+25.2 +20.4 75 +31 +31 очень
душно
1014.6 1008.1 +33.8
15 19.09 С 1 10 км ясно +23.4 +21.3 88 +31 +31 очень
душно
1014.9 1009.0
18 19.09 С 1 8000 м 1/1 600 м
[Sc]
+22.4 +20.3 88 +29 +29 очень
душно
1014.3 1007.9
21 19.09 штиль 0 10 км н/о +21.6 +20.1 91 +27 +27 душно 1015.1 1009.0

 

Местоположение метеостанции Бау-Бау (Индонезия): широта -5.47 долгота 122.61 высота над уровнем моря 2 м.

В архиве по умолчанию представлена погода в Бау-Бау за последнюю неделю. Архивные данные за месяц целиком и за предыдущие месяцы, начиная с января 2011 года, Вы можете получить, выбрав интересующий диапазон дат из раскрывающегося списка и нажав кнопку "Ввод!".


*Определитесь, кто Вы:
робот инопланетянин человек

Внимание! Время в таблицах - всемирное. Для получения местного времени необходимо прибавить поправку, которая равна 8 ч.

Смотрите также архив погоды в соседних городах и на ближайших метеорологических станциях:

Погода в Кендари (Индонезия) (154 км)
Погода в Колаке (Индонезия) (177 км)
Погода в Ларантуке (Индонезия) (314 км)
Погода в Аэропорту Султана Хасануддин (Индонезия) (342 км)
Погода в Уджангпанданге (Индонезия) (342 км)
Погода в Маумере (Индонезия) (354 км)
Погода на Алоре (Индонезия) (374 км)
Погода в Тауне (Индонезия) (380 км)
Погода в Масамбе (Индонезия) (410 км)
Погода в Рутенге (Индонезия) (425 км)

Пояснения к столбцам:

Ветер - указаны скорость ветра в м/с - средняя за 10 мин, порывы в срок и между сроками (в фигурных скобках) и направление, откуда дует ветер: С - северный, СВ - северо-восточный, В - восточный, ЮВ - юго-восточный, Ю - южный, ЮЗ - юго-западный, З - западный, СЗ - северо-западный.
Видимость - горизонтальная дальность видимости в метрах или километрах. При видимости от 1 до 10 км при отсутствии осадков обычно наблюдается дымка, при ухудшении видимости до 1 км и менее - туман. В сухую погоду видимость может ухудшаться дымом, пылью или мглою.
Явления - указаны атмосферные явления, наблюдавшиеся в срок или в последний час перед сроком; фигурными скобками обозначены явления, наблюдавшиеся между сроками (за 1-3 часа до срока); квадратными скобками обозначены град или гололедные отложения с указанием их диаметра в мм.
Облачность - указаны через наклонную черту общая и нижняя облачность в баллах и высота нижней границы облаков в метрах; квадратными скобками обозначены формы облаков: Ci - перистые, Cs - перисто-слоистые, Cc - перисто-кучевые, Ac - высококучевые, As - высокослоистые, Sc - слоисто-кучевые, Ns - слоисто-дождевые, Cu - кучевые, Cb - кучево-дождевые. Подробнее классификацию облаков см. в Атласе облаков (PDF).
T - Температура воздуха - температура, измеренная на высоте 2 м над землей.
Td - Температура точки росы - температура, при понижении до которой содержащийся в воздухе водяной пар достигнет насыщения.
f - Относительная влажность воздуха - влажноcть воздуха, измеренная на высоте 2 м над землей.
Te - Эффективная температура - температура, которую ощущает одетый по сезону человек в тени. Характеристика душности погоды. При расчете учитывается влияние влажности воздуха и скорости ветра на теплоощущения человека.
Tes - Эффективная температура на солнце - температура, которую ощущает человек, с поправкой на солнечный нагрев. Характеристика знойности погоды. Зависит от высоты солнца над горизонтом, облачности и скорости ветра. Ночью, в пасмурную погоду, а также при ветре 12 м/с и более поправка равна нулю.
P - Атмосферное давление - приведенное к уровню моря атмосферное давление.
Po - Атмосферное давление - измеренное на уровне метеостанции атмосферное давление.
Tmin - Минимальная температура - минимум температуры воздуха на высоте 2 м над землей.
Tmax - Максимальная температура - максимум температуры воздуха на высоте 2 м над землей.
R - Количество осадков - Количество выпавших осадков за период времени, мм. При наведении курсора мыши на число - период времени, за который выпало указанное количество осадков.
R24 - Количество осадков - Количество выпавших осадков за 24 часа, мм.
S - Снежный покров - Высота снежного покрова, см. При наведении курсора мыши на число - состояние снежного покрова и степень покрытия местности в баллах.